This is the latest recevied weather packets stored in our database for station/object KC8QDR-1. If no packets are shown the sender has not sent any weather packets the latest 10 day(s).
| Time | Temp. | Humidity | Pressure | Rain* | Wind** | Luminosity | Snow |
|---|---|---|---|---|---|---|---|
| 1777610924 | 3.89° C | 94% | 1018 hPa | 0 mm | 0 m/s | - | - |
| 1777610412 | 3.89° C | 95% | 1018 hPa | 0 mm | 0 m/s | - | - |
| 1777610325 | 3.89° C | 95% | 1018 hPa | 0 mm | 0 m/s | - | - |
| 1777609725 | 3.89° C | 95% | 1018.1 hPa | 0 mm | 0 m/s | - | - |
| 1777609125 | 3.89° C | 95% | 1018.2 hPa | 0 mm | 0 m/s | - | - |
| 1777608525 | 3.89° C | 94% | 1018.4 hPa | 0 mm | 0 m/s | - | - |
| 1777607925 | 3.89° C | 95% | 1018.4 hPa | 0 mm | 0 m/s | - | - |
| 1777607325 | 3.89° C | 95% | 1018.6 hPa | 0 mm | 0 m/s | - | - |
| 1777606725 | 3.89° C | 94% | 1018.6 hPa | 0 mm | 0 m/s | - | - |
| 1777606125 | 3.89° C | 95% | 1018.7 hPa | 0 mm | 0 m/s | - | - |
| 1777605525 | 3.89° C | 94% | 1018.9 hPa | 0 mm | 0 m/s | - | - |
| 1777604925 | 3.89° C | 95% | 1018.9 hPa | 0 mm | 0 m/s | - | - |
| 1777604325 | 3.89° C | 95% | 1019.2 hPa | 0 mm | 0 m/s | - | - |
| 1777603726 | 3.89° C | 94% | 1019.3 hPa | 0 mm | 0 m/s | - | - |
| 1777603125 | 3.89° C | 93% | 1019.2 hPa | 0 mm | 0 m/s | - | - |
| 1777602524 | 3.89° C | 92% | 1019.1 hPa | 0 mm | 0 m/s | - | - |
| 1777601925 | 3.89° C | 90% | 1018.9 hPa | 0 mm | 0 m/s | - | - |
| 1777601324 | 4.44° C | 89% | 1018.5 hPa | 0 mm | 0 m/s | - | - |
| 1777600725 | 4.44° C | 88% | 1018.3 hPa | 0 mm | 0 m/s | - | - |
| 1777600124 | 4.44° C | 86% | 1018.3 hPa | 0 mm | 0 m/s | - | - |
| 1777599525 | 5° C | 85% | 1018.1 hPa | 0 mm | 0 m/s | - | - |
| 1777598924 | 5.56° C | 82% | 1017.8 hPa | 0 mm | 0 m/s | - | - |
| 1777598325 | 5.56° C | 82% | 1017.6 hPa | 0 mm | 0 m/s | - | - |
| 1777597725 | 6.11° C | 77% | 1017.5 hPa | 0 mm | 0 m/s | - | - |
| 1777597125 | 6.67° C | 77% | 1017.6 hPa | 0 mm | 0 m/s | - | - |
* Rain latest hour (hover to see other rain measurements)
** Current wind speed in m/s (hover to see current wind gust speed)